Harlan, IA

3:09 PM CST on November 16, 2019 (GMT -0600)
Harlan Municipal

Weather History for KHNR - September, 2019

Change the Weather History Date:

Saturday, September 21, 2019

  Actual Average Record
Temperature  
Mean Temperature 72 °F -  
Max Temperature 78 °F 72 °F 96 °F (2005)
Min Temperature 66 °F 49 °F 32 °F (2000)
Cooling Degree Days 7    
Growing Degree Days 22 (Base 50)    
Moisture  
Dew Point 71 °F    
Average Humidity 93    
Maximum Humidity 100    
Minimum Humidity 78    
Precipitation  
Precipitation 0.01 in - - ()
Sea Level Pressure  
Sea Level Pressure 29.86 in    
Wind  
Wind Speed 11 mph ()    
Max Wind Speed 17 mph    
Max Gust Speed 24 mph    
Visibility 9.3 miles    
Events      
Averages and records for this station are not official NWS values.
T = Trace of Precipitation, MM = Missing Value Source: Averaged Metar Reports

Daily Weather History Graph

Daily Weather History Graph

Search for Another Location

Airport or City:

Astronomy

Sep. 21, 2019 Rise Set
Actual Time 7:07 AM CDT 7:20 PM CDT
Civil Twilight 6:39 AM CDT 7:48 PM CDT
Nautical Twilight 6:07 AM CDT 8:20 PM CDT
Astronomical Twilight 5:34 AM CDT 8:53 PM CDT
Moon 11:54 PM CDT (9/21) 2:19 PM CDT (9/21)
Length of Visible Light 13h 08m
Length of Day
12h 13m
Waning Gibbous, 54% of the Moon is Illuminated
Sep 21
Waning Gibbous
Sep 21
Last Quarter
Sep 28
New
Oct 5
First Quarter
Oct 13
Full

Hourly Weather History & Observations

Time (CDT) Temp. Dew Point Humidity Pressure Visibility Wind Dir Wind Speed Gust Speed Precip Events Conditions
12:15 AM 73.4 °F 68.0 °F 83% 29.90 in 10.0 mi South 15.0 mph 21.9 mph N/A   Overcast
12:35 AM 73.4 °F 68.0 °F 83% 29.90 in 10.0 mi South 12.7 mph 20.7 mph N/A   Overcast
12:55 AM 71.6 °F 69.8 °F 94% 29.90 in 10.0 mi South 16.1 mph 21.9 mph N/A   Overcast
1:15 AM 71.6 °F 69.8 °F 94% 29.90 in 10.0 mi South 9.2 mph 19.6 mph N/A   Overcast
1:35 AM 71.6 °F 69.8 °F 94% 29.90 in 10.0 mi South 12.7 mph - N/A   Overcast
1:55 AM 71.6 °F 69.8 °F 94% 29.90 in 10.0 mi South 9.2 mph - N/A   Overcast
2:15 AM 71.6 °F 69.8 °F 94% 29.89 in 10.0 mi South 12.7 mph - N/A   Overcast
2:35 AM 71.6 °F 69.8 °F 94% 29.89 in 10.0 mi South 10.4 mph - N/A   Overcast
2:55 AM 71.6 °F 69.8 °F 94% 29.89 in 10.0 mi South 15.0 mph 21.9 mph N/A   Overcast
3:15 AM 71.6 °F 69.8 °F 94% 29.88 in 10.0 mi South 11.5 mph - N/A   Overcast
3:35 AM 71.6 °F 69.8 °F 94% 29.88 in 10.0 mi South 11.5 mph 17.3 mph N/A   Overcast
3:55 AM 71.6 °F 69.8 °F 94% 29.87 in 10.0 mi South 10.4 mph 17.3 mph N/A   Overcast
4:15 AM 71.6 °F 69.8 °F 94% 29.87 in 10.0 mi South 11.5 mph - N/A   Overcast
4:35 AM 71.6 °F 69.8 °F 94% 29.87 in 10.0 mi South 10.4 mph - N/A   Overcast
4:55 AM 71.6 °F 71.6 °F 100% 29.87 in 9.0 mi South 13.8 mph - N/A   Overcast
5:15 AM 71.6 °F 71.6 °F 100% 29.86 in 6.0 mi South 10.4 mph 19.6 mph N/A   Overcast
5:35 AM 71.6 °F 71.6 °F 100% 29.86 in 8.0 mi South 12.7 mph 19.6 mph N/A   Overcast
5:55 AM 71.6 °F 71.6 °F 100% 29.86 in 5.0 mi South 11.5 mph - N/A   Overcast
6:15 AM 71.6 °F 71.6 °F 100% 29.86 in 5.0 mi South 10.4 mph - N/A   Overcast
6:35 AM 71.6 °F 71.6 °F 100% 29.86 in 3.0 mi South 12.7 mph - N/A   Overcast
6:55 AM 71.6 °F 71.6 °F 100% 29.85 in 5.0 mi SSE 12.7 mph - N/A   Overcast
7:15 AM 71.6 °F 71.6 °F 100% 29.85 in 10.0 mi South 11.5 mph - N/A   Overcast
7:35 AM 71.6 °F 71.6 °F 100% 29.84 in 10.0 mi SSE 11.5 mph - N/A   Overcast
7:55 AM 71.6 °F 71.6 °F 100% 29.86 in 10.0 mi South 13.8 mph 19.6 mph N/A   Overcast
8:15 AM 71.6 °F 71.6 °F 100% 29.85 in 10.0 mi South 17.3 mph - N/A   Overcast
8:35 AM 73.4 °F 71.6 °F 94% 29.86 in 10.0 mi South 13.8 mph - N/A   Overcast
8:55 AM 73.4 °F 71.6 °F 94% 29.86 in 10.0 mi South 16.1 mph - N/A   Overcast
9:15 AM 73.4 °F 71.6 °F 94% 29.86 in 10.0 mi South 12.7 mph 20.7 mph N/A   Overcast
9:35 AM 73.4 °F 71.6 °F 94% 29.86 in 10.0 mi South 12.7 mph 19.6 mph N/A   Overcast
9:55 AM 73.4 °F 71.6 °F 94% 29.86 in 10.0 mi South 15.0 mph - N/A   Overcast
10:15 AM 73.4 °F 71.6 °F 94% 29.86 in 10.0 mi South 12.7 mph - N/A   Overcast
10:35 AM 71.6 °F 71.6 °F 100% 29.86 in 4.0 mi South 10.4 mph 17.3 mph N/A   Overcast
10:55 AM 71.6 °F 71.6 °F 100% 29.86 in 3.0 mi SSW 17.3 mph - N/A   Mostly Cloudy
11:15 AM 71.6 °F 71.6 °F 100% 29.86 in 2.0 mi South 11.5 mph 18.4 mph N/A   Mostly Cloudy
11:35 AM 71.6 °F 71.6 °F 100% 29.85 in 10.0 mi South 10.4 mph 17.3 mph N/A   Mostly Cloudy
11:55 AM 73.4 °F 71.6 °F 94% 29.85 in 10.0 mi South 11.5 mph 20.7 mph N/A   Overcast
12:15 PM 75.2 °F 71.6 °F 89% 29.84 in 10.0 mi South 15.0 mph 21.9 mph N/A   Overcast
12:35 PM 75.2 °F 71.6 °F 89% 29.85 in 10.0 mi South 13.8 mph 21.9 mph N/A   Overcast
12:55 PM 75.2 °F 71.6 °F 89% 29.85 in 10.0 mi SSW 13.8 mph - N/A   Overcast
1:15 PM 75.2 °F 71.6 °F 89% 29.85 in 10.0 mi SSW 11.5 mph - N/A   Overcast
1:35 PM 77.0 °F 71.6 °F 83% 29.85 in 10.0 mi South 10.4 mph 16.1 mph N/A   Overcast
1:55 PM 77.0 °F 71.6 °F 83% 29.85 in 10.0 mi SSW 13.8 mph - N/A   Overcast
2:15 PM 77.0 °F 71.6 °F 83% 29.84 in 10.0 mi South 13.8 mph - N/A   Overcast
2:35 PM 77.0 °F 71.6 °F 83% 29.84 in 10.0 mi South 10.4 mph 17.3 mph N/A   Overcast
2:55 PM 77.0 °F 71.6 °F 83% 29.84 in 10.0 mi South 15.0 mph - N/A   Overcast
3:15 PM 77.0 °F 71.6 °F 83% 29.84 in 10.0 mi SSW 11.5 mph 20.7 mph N/A   Overcast
3:35 PM 77.0 °F 71.6 °F 83% 29.84 in 10.0 mi South 12.7 mph - N/A   Overcast
3:55 PM 77.0 °F 71.6 °F 83% 29.84 in 10.0 mi South 11.5 mph - N/A   Overcast
4:15 PM 77.0 °F 71.6 °F 83% 29.84 in 10.0 mi South 13.8 mph 19.6 mph N/A   Overcast
4:35 PM 77.0 °F 73.4 °F 89% 29.83 in 10.0 mi South 17.3 mph - N/A   Overcast
4:55 PM 77.0 °F 73.4 °F 89% 29.84 in 10.0 mi South 11.5 mph 19.6 mph N/A   Overcast
5:15 PM 78.8 °F 71.6 °F 78% 29.83 in 10.0 mi South 13.8 mph 21.9 mph N/A   Mostly Cloudy
5:35 PM 78.8 °F 73.4 °F 83% 29.83 in 10.0 mi South 12.7 mph - N/A   Mostly Cloudy
5:55 PM 78.8 °F 73.4 °F 83% 29.83 in 10.0 mi South 8.1 mph 15.0 mph N/A   Overcast
6:15 PM 78.8 °F 73.4 °F 83% 29.83 in 10.0 mi SSW 11.5 mph - N/A   Scattered Clouds
6:35 PM 77.0 °F 73.4 °F 89% 29.84 in 10.0 mi South 10.4 mph - N/A   Mostly Cloudy
6:55 PM 77.0 °F 73.4 °F 89% 29.84 in 10.0 mi South 8.1 mph - N/A   Overcast
7:15 PM 75.2 °F 73.4 °F 94% 29.84 in 10.0 mi SSE 9.2 mph - N/A   Overcast
7:35 PM 75.2 °F 73.4 °F 94% 29.84 in 10.0 mi SSE 8.1 mph - N/A   Mostly Cloudy
7:55 PM 75.2 °F 73.4 °F 94% 29.84 in 10.0 mi SSE 9.2 mph - N/A   Mostly Cloudy
8:15 PM 73.4 °F 73.4 °F 100% 29.84 in 10.0 mi SSE 6.9 mph - N/A   Overcast
8:35 PM 73.4 °F 73.4 °F 100% 29.87 in 10.0 mi South 9.2 mph - N/A   Mostly Cloudy
8:55 PM 73.4 °F 71.6 °F 94% 29.86 in 10.0 mi SSE 8.1 mph - N/A   Mostly Cloudy
9:15 PM 73.4 °F 71.6 °F 94% 29.87 in 10.0 mi South 8.1 mph - N/A   Scattered Clouds
9:35 PM 73.4 °F 71.6 °F 94% 29.86 in 10.0 mi South 11.5 mph - N/A   Mostly Cloudy
9:55 PM 73.4 °F 71.6 °F 94% 29.87 in 10.0 mi South 9.2 mph - N/A   Partly Cloudy
10:15 PM 73.4 °F 71.6 °F 94% 29.89 in 10.0 mi South 8.1 mph - N/A   Mostly Cloudy
10:35 PM 71.6 °F 71.6 °F 100% 29.90 in 10.0 mi South 13.8 mph 20.7 mph N/A   Mostly Cloudy
10:55 PM 68.0 °F 66.2 °F 94% 29.88 in 7.0 mi South 12.7 mph 24.2 mph N/A   Overcast
11:15 PM 66.2 °F 66.2 °F 100% 29.88 in 10.0 mi WSW 10.4 mph - N/A   Mostly Cloudy
11:35 PM 66.2 °F 64.4 °F 94% 29.88 in 10.0 mi SW 9.2 mph - N/A   Mostly Cloudy
11:55 PM 66.2 °F 64.4 °F 94% 29.89 in 10.0 mi SSW 6.9 mph 13.8 mph 0.01 in   Mostly Cloudy